Location: Igon
(43.1667°N, 0.2333°W)
Time: 14:36:54
(UTC+00:00)

COSMOS 2455 - Pass Details

Date: 29 November 2020
Orbit: 900 x 909 km, 67.1° (Epoch: 23 January)

Event Time Altitude Azimuth Distance (km) Brightness Sun altitude
Rises 05:59:22 0° 206° (SSW) 3,515 5.8 -12.8°
Reaches altitude 10° 06:01:51 10° 205° (SSW) 2,579 5.2 -12.4°
Maximum altitude 06:07:51 83° 119° (ESE) 918 3.0 -11.3°
Drops below altitude 10° 06:13:54 10° 32° (NNE) 2,600 5.4 -10.3°
Sets 06:16:25 0° 32° (NNE) 3,546 6.1 -9.9°
